RADUGA 6 (11708 NORAD) Tracking and Keplerian Element Data

This shows tracking and keplerian element data for the satellite.

Feedback or suggestion? Click here.




ElementValue
Catalog11708
NameRADUGA 6
Epoch Orbit11716
Epoch Day34.71927785
Epoch Year2025
RAAN291.615
Inclination6.9425
Eccentricity0.0001775
Argument of Perigee303.2868
Mean Anonmoly235.2282
Mean Motion1.00344177
Decay Rate-1.18E-06
L11 11708U 80016A 25034.71927785 -.00000118 00000+0 00000+0 0 9991
L22 11708 6.9425 291.6150 0001775 303.2868 235.2282 1.00344177117166



Live tracking and technical data element details for RADUGA 6 (NORAD 11708). RADUGA 6 can be tracked NOW for your location showing map with azimuth and elevation plus other details from your city location.







IsCatalogInMostPopularTable: catalog: 11708, numindb: 289
Update: records affected: 1



GetName: 11708 RADUGA 6

Hit Count: updated at: Thu, 15 May 2025 10:50:23 GMT